Theta_e
313 313 311 311 310 311 311 310 312 313 313 313 312 312 310 309 307 306 306 308 309 313 318 316 321 322 324 329 330 329 329 327 327 332 332 334 335 324 315 313 312 312 311 308 308 306 307 307 307 311 313 316 318 319 319 318 317 315 315 314 314 314 315 315 315 320 322 323 320 317 316 315 314 313
311 310 311 310 311 312 312 311 311 312 313 313 313 313 312 312 308 308 306 308 311 311 315 317 319 325 325 327 329 330 328 325 325 328 329 331 333 319 315 314 311 311 310 309 309 307 306 307 308 311 311 313 315 314 315 315 314 314 313 313 314 313 316 315 315 319 320 320 318 316 315 315 314 313
310 309 309 309 310 310 311 312 312 313 312 313 312 312 312 312 312 310 309 307 312 316 313 315 318 320 321 321 323 324 324 322 325 326 327 327 321 318 325 314 314 312 311 309 309 307 306 306 306 307 311 312 313 314 315 315 315 314 313 312 313 316 317 317 316 319 321 319 318 317 315 314 313 313
309 308 308 307 308 309 309 311 311 310 311 311 310 311 312 312 312 311 309 308 308 314 315 316 316 317 318 319 319 320 319 320 322 325 326 328 323 327 328 315 313 313 311 310 309 308 307 306 306 306 306 307 309 310 312 313 314 314 312 311 313 315 317 317 316 320 321 320 319 317 314 314 313 313
308 306 306 306 307 309 309 310 309 309 309 310 310 310 310 310 311 310 309 307 308 312 316 316 315 317 318 315 317 317 319 322 324 322 326 327 328 328 327 331 313 310 310 309 308 307 307 306 306 306 305 305 306 308 310 312 313 312 310 310 310 312 316 318 317 318 321 320 319 316 314 313 312 313
308 309 306 305 306 307 306 309 307 308 308 307 309 309 309 307 308 311 308 308 307 307 312 312 314 315 316 313 317 318 320 321 321 320 322 323 324 322 324 326 329 308 309 307 306 306 306 306 305 304 304 304 304 306 307 306 307 310 309 309 308 312 314 316 316 316 318 318 317 316 314 313 312 313
306 307 306 306 306 307 307 308 309 309 309 308 306 308 308 308 309 308 307 306 305 306 307 311 309 311 314 315 313 315 317 317 317 316 317 317 318 320 322 322 325 307 308 305 306 306 305 305 304 303 304 303 303 303 305 305 306 306 307 307 307 307 309 309 311 313 313 317 317 315 313 312 313 314
306 306 305 306 306 306 306 306 306 307 308 307 307 307 308 309 308 309 309 309 306 306 304 308 308 309 311 312 313 313 313 313 314 315 316 317 317 319 320 322 322 314 307 305 306 307 307 305 304 303 302 303 303 302 302 304 305 305 306 306 306 305 306 306 307 308 311 316 317 314 312 313 315 316
306 305 305 305 305 305 306 306 306 306 307 305 306 305 305 305 307 309 309 308 308 306 305 306 309 310 309 310 310 311 310 311 312 314 315 316 316 318 321 322 322 314 303 305 305 306 306 305 304 303 303 303 302 302 302 303 304 305 306 306 306 305 305 305 306 307 308 309 311 315 313 313 316 317
305 305 304 304 305 304 304 305 305 306 307 306 306 305 305 304 306 307 307 307 307 306 306 306 306 309 307 308 309 310 311 310 310 311 313 315 316 317 319 320 320 323 324 329 325 311 307 305 302 304 304 302 301 301 302 303 304 304 305 305 306 305 305 304 304 304 305 306 306 309 313 313 316 318
304 304 303 304 304 304 304 304 304 306 306 306 306 306 306 306 306 305 305 304 305 305 304 305 306 306 308 309 307 310 311 310 309 309 310 311 314 316 317 318 319 323 325 321 314 316 313 309 316 306 301 302 303 303 302 303 303 304 303 304 304 305 304 303 303 303 304 305 305 305 306 310 314 317
303 303 303 303 302 303 303 304 304 303 302 303 304 305 305 306 305 304 304 304 304 304 304 304 304 305 305 307 309 309 309 308 309 309 310 311 314 317 320 321 320 323 322 322 327 314 311 310 309 302 303 303 303 303 303 302 303 303 303 303 302 303 303 303 304 304 304 303 304 304 304 305 307 314
302 301 302 302 302 301 299 298 298 299 299 300 299 301 303 303 304 304 304 303 303 303 303 303 304 304 304 305 306 306 307 308 308 311 313 311 311 312 313 315 319 318 319 321 321 321 326 324 326 325 326 326 310 309 304 311 306 302 302 301 302 302 303 303 303 304 304 304 303 303 303 303 303 305
301 301 302 302 298 299 299 298 296 294 295 297 299 300 302 302 302 302 302 302 302 302 301 302 302 302 302 304 306 306 308 310 311 310 310 308 310 312 312 314 317 319 318 317 317 318 321 322 323 324 323 327 325 327 320 324 319 309 301 301 302 302 302 303 303 303 303 303 303 303 302 302 302 302
301 301 301 302 302 300 299 299 294 293 294 294 294 295 296 297 299 299 299 300 301 301 301 302 302 302 302 304 305 306 306 308 309 309 310 309 309 308 308 307 313 319 321 317 315 317 322 322 319 320 323 325 324 325 322 301 305 303 302 301 301 301 301 302 302 302 302 303 303 302 302 301 302 301
300 300 301 301 302 302 302 301 298 298 294 292 293 292 292 292 292 293 298 298 299 300 300 300 301 302 301 302 304 304 305 306 307 308 309 309 309 308 308 309 308 315 321 317 315 314 319 320 318 318 320 321 324 321 308 303 301 301 300 300 300 300 301 301 301 301 301 301 302 301 301 301 300 300
299 300 299 300 301 302 301 299 300 301 300 295 293 292 293 292 292 291 290 292 298 299 299 299 300 301 302 302 303 305 306 306 305 306 305 306 308 308 308 308 309 313 318 314 311 311 315 317 315 316 319 321 323 321 304 299 299 299 299 299 299 299 299 300 300 300 300 300 301 301 301 300 300 299
300 300 300 299 300 301 301 301 300 301 300 299 299 300 300 301 299 293 291 290 290 294 297 297 297 300 302 300 303 305 305 304 302 303 303 305 306 306 306 309 310 312 314 311 309 308 311 315 315 314 317 319 319 318 302 298 297 298 297 298 297 298 298 299 299 300 300 299 300 300 300 299 298 298
300 300 301 301 300 300 301 300 299 299 298 298 298 298 298 299 300 301 302 302 301 299 299 298 299 300 301 302 303 304 305 305 303 303 303 304 305 305 306 306 308 309 310 311 309 304 309 313 312 313 315 317 316 316 301 297 298 297 297 296 296 296 297 297 298 298 299 299 299 299 298 298 297 297
300 300 301 300 300 300 300 297 292 293 297 296 296 296 297 298 299 300 298 296 296 299 301 302 302 302 302 297 300 301 302 302 302 302 302 303 302 301 300 300 303 303 308 310 307 305 306 311 310 310 314 315 314 314 313 296 297 297 296 296 296 296 296 296 297 297 298 298 299 299 298 297 296 295
301 301 301 301 300 300 299 295 291 290 292 296 295 296 296 297 298 298 300 296 293 292 293 292 292 291 291 292 292 292 292 295 298 299 298 298 300 298 297 298 300 301 305 307 308 307 305 309 309 309 311 312 311 312 312 311 298 296 296 296 295 295 296 296 297 297 297 297 298 297 296 296 294 294
301 301 300 299 299 299 299 293 290 290 293 295 295 295 295 295 295 296 298 299 299 294 292 291 291 291 292 292 291 292 292 292 294 297 295 298 298 296 297 295 298 301 303 305 308 305 305 308 309 307 310 311 310 311 310 307 304 297 297 294 294 294 295 295 296 296 297 297 297 296 295 294 294 296
301 301 300 297 297 298 296 291 290 289 292 295 295 295 294 293 293 295 297 297 297 297 297 297 298 297 295 296 297 297 294 293 294 298 297 298 297 295 296 296 297 297 299 304 309 303 304 306 307 307 306 304 309 308 306 303 306 305 306 306 301 294 294 294 295 296 296 296 296 295 294 294 295 296
300 300 300 298 292 291 291 290 289 289 289 293 295 294 293 292 292 295 296 296 295 295 295 295 296 296 297 297 297 298 298 298 298 297 297 297 296 295 295 295 296 295 298 305 308 304 305 306 305 308 307 303 301 305 305 302 302 302 304 303 302 295 294 294 294 294 294 294 294 294 294 294 295 296
298 297 298 299 294 289 289 289 288 288 288 289 293 293 292 293 293 292 293 292 291 293 293 292 293 293 294 295 295 296 296 296 297 298 297 298 298 296 295 295 295 296 299 303 300 305 302 305 304 306 306 306 307 305 302 302 301 301 302 301 300 299 298 296 295 294 293 293 293 293 293 294 294 295
296 297 298 298 293 287 289 288 288 288 288 288 291 292 289 288 288 290 291 291 291 291 291 291 291 292 292 293 293 293 294 295 296 297 298 298 298 298 298 296 295 295 297 302 297 303 303 303 304 303 305 305 306 306 298 299 300 299 300 300 300 299 298 296 294 294 294 294 293 293 293 293 293 293
296 298 298 297 291 288 288 288 288 288 288 288 291 288 288 288 287 288 290 290 290 290 289 289 289 290 291 291 292 292 293 295 296 297 297 298 298 298 298 299 299 298 299 301 302 303 302 301 303 302 303 305 304 304 301 300 298 298 297 298 298 298 298 297 295 294 294 293 293 292 292 291 291 292
297 297 298 295 288 288 288 288 288 288 288 290 288 288 287 287 288 290 290 290 289 289 289 288 289 289 291 291 291 292 294 295 296 296 297 297 297 297 297 298 298 298 299 300 300 301 302 301 301 302 303 302 303 303 301 304 299 297 296 296 295 295 296 296 295 294 294 293 292 292 292 292 293 293
296 292 289 288 289 288 288 288 288 288 288 288 287 287 287 288 291 290 290 290 290 289 289 289 289 290 291 292 293 295 295 295 296 295 296 296 297 297 297 297 297 298 299 300 300 300 300 300 300 301 301 302 302 303 304 304 299 298 297 293 291 294 294 295 294 293 293 292 291 291 291 291 291 293
289 288 288 287 287 288 289 291 292 291 292 289 288 288 288 291 291 291 291 290 290 289 289 290 290 291 293 293 294 295 295 294 293 294 294 294 294 295 294 294 295 297 297 298 300 300 300 300 300 301 301 302 303 303 305 304 296 298 294 294 293 292 293 294 293 293 292 291 291 291 291 292 292 292
293 292 291 291 289 289 288 288 288 288 289 290 291 292 292 292 292 291 292 291 291 290 291 290 291 292 293 294 293 293 293 292 293 294 292 292 292 293 293 293 292 293 296 298 299 300 300 300 300 301 301 302 302 302 304 303 297 294 293 294 292 288 291 293 293 292 292 292 292 292 292 292 292 293
292 292 290 290 293 292 291 291 292 292 291 291 290 291 291 291 291 291 290 290 292 292 292 292 292 291 292 291 292 292 293 292 292 293 292 291 291 292 292 291 291 293 294 296 298 299 297 301 302 302 301 301 299 301 303 303 297 293 292 292 292 293 292 292 292 292 293 293 292 291 291 292 291 292
291 292 292 291 290 290 288 288 290 290 290 289 290 291 291 291 291 291 291 290 290 291 291 291 291 290 291 291 291 291 291 291 291 292 292 292 291 292 292 291 291 291 291 292 294 296 299 301 300 301 302 302 301 301 301 298 296 294 292 291 292 292 292 293 292 292 293 291 290 290 290 291 291 292
290 290 289 289 289 289 288 287 287 288 289 289 288 289 288 289 290 290 290 290 291 291 290 290 289 289 289 289 290 290 290 291 291 292 290 291 292 290 290 289 290 291 292 292 293 294 296 299 300 301 301 300 303 304 302 300 294 293 293 293 292 291 292 293 293 292 292 291 290 288 289 289 291 293
289 289 288 288 288 288 288 287 287 288 288 288 288 288 289 289 288 288 290 290 289 289 289 289 289 289 289 288 289 288 289 289 290 291 291 291 291 291 290 289 290 291 291 292 293 294 296 297 298 297 297 298 298 298 296 301 297 294 293 293 292 291 292 293 292 292 292 291 290 287 287 289 290 293
289 289 288 287 287 288 287 287 287 288 288 288 288 288 287 287 288 288 288 289 289 288 288 288 288 288 288 289 289 289 289 288 289 290 289 290 290 290 291 291 290 291 291 291 292 294 296 296 296 294 292 292 292 292 293 295 297 295 292 290 292 292 292 293 292 292 291 291 290 288 286 286 288 291
288 288 288 287 288 288 287 287 288 288 288 288 288 288 287 287 288 288 288 288 288 288 288 288 287 288 288 288 288 288 289 288 288 289 289 290 290 290 289 289 289 291 291 292 293 294 296 295 295 294 292 290 290 289 291 293 293 296 296 291 291 292 291 291 290 289 290 290 289 288 288 287 287 290
288 288 288 288 288 288 288 288 288 287 288 288 287 287 287 288 288 288 289 288 287 287 288 288 288 288 288 288 288 289 289 289 289 288 288 289 289 289 289 289 290 290 291 292 293 294 295 295 294 294 293 290 290 290 289 290 292 293 295 294 291 290 291 290 288 287 288 290 289 290 290 287 287 290
289 288 287 287 288 288 287 287 287 287 288 287 287 286 287 287 287 287 287 287 287 287 288 288 287 287 288 288 289 288 288 288 288 288 288 289 289 289 289 290 290 291 291 291 294 294 295 294 294 294 294 292 291 292 292 290 290 292 292 293 292 290 290 289 288 288 288 288 289 290 290 290 290 288
288 288 288 288 288 288 288 288 288 288 287 287 287 287 287 286 286 286 286 286 286 287 288 287 287 288 288 288 288 289 289 288 288 288 288 288 289 289 290 290 290 291 291 290 290 292 293 294 294 295 295 294 295 296 296 294 291 290 290 291 291 291 290 289 288 287 287 288 288 287 285 286 285 287
288 288 288 288 288 288 288 288 288 288 287 287 287 287 287 286 286 286 286 287 286 286 286 287 287 287 287 288 288 288 288 288 288 288 288 288 288 289 289 288 291 291 290 289 290 291 292 295 294 291 293 290 290 293 291 288 286 287 287 289 290 291 291 291 290 288 287 288 288 286 285 285 285 286
288 287 288 289 288 288 288 288 288 287 287 287 287 286 286 286 286 286 286 286 287 287 287 286 287 287 287 288 288 288 287 288 288 288 288 289 289 289 289 289 290 291 290 290 290 291 294 295 290 290 290 290 291 290 287 286 285 286 287 288 289 289 290 290 291 290 291 289 288 286 285 285 285 284
288 288 287 288 288 289 288 287 287 287 286 287 286 286 286 286 286 286 286 286 286 286 286 286 287 287 287 288 288 288 288 288 288 289 289 289 289 289 289 290 290 291 291 291 292 291 290 291 292 291 291 291 292 290 287 286 286 286 286 287 287 288 288 289 289 289 289 290 289 289 288 286 284 282
288 288 288 288 288 288 288 287 287 287 287 287 287 286 286 286 285 286 286 286 286 286 287 287 287 287 287 288 289 289 289 289 289 289 289 289 289 290 291 291 291 291 291 291 290 289 291 291 291 291 291 291 290 289 287 286 286 286 286 286 286 286 286 287 288 288 288 288 288 288 289 289 288 288
288 288 288 288 287 287 287 287 287 287 287 287 287 286 286 286 285 286 286 286 286 287 287 287 287 287 288 288 288 288 288 288 289 289 290 290 291 291 292 291 291 290 290 289 288 288 289 290 291 292 291 289 289 288 287 287 286 285 285 285 285 286 286 286 286 286 286 286 287 287 287 287 288 287
Wind_Speed
1 2 2 3 2 1 2 3 4 4 4 4 4 4 5 5 7 7 6 5 5 7 7 6 6 3 3 4 4 4 6 4 3 6 7 6 7 7 10 9 10 11 11 12 12 12 13 13 14 13 13 13 12 16 20 20 22 20 20 21 21 20 19 19 19 19 20 22 21 19 18 17 16 15
2 2 2 2 2 2 3 2 3 4 4 4 4 4 5 5 6 6 7 7 5 6 6 6 6 4 4 4 4 5 6 8 6 7 8 9 5 4 6 6 9 10 11 11 12 12 12 12 12 12 12 14 14 14 18 20 19 21 22 22 22 21 21 19 18 19 20 20 19 19 18 17 15 16
1 1 1 2 1 2 2 3 2 3 3 4 4 4 5 5 6 7 7 8 5 3 5 6 7 7 8 7 7 7 7 7 7 9 9 11 6 4 6 11 11 12 12 12 12 12 12 11 11 10 10 12 14 15 16 19 21 21 23 23 23 22 22 20 20 21 21 20 19 19 19 17 16 16
0 1 1 1 2 2 3 3 2 3 3 3 5 4 5 5 5 6 7 8 9 6 7 7 7 9 8 7 9 9 8 6 5 8 8 9 9 9 11 13 15 12 13 13 12 11 11 11 12 11 11 13 15 16 14 18 22 24 23 23 23 23 24 23 22 21 22 21 20 20 20 19 18 17
2 0 1 1 1 1 4 3 3 3 3 4 4 4 4 5 5 6 7 9 9 8 6 7 7 7 7 8 8 9 8 7 7 8 8 9 8 9 9 7 13 14 13 12 11 11 11 11 12 11 11 12 13 14 16 17 21 22 23 24 24 25 25 25 24 24 24 22 21 20 21 20 20 17
2 2 1 1 0 2 3 3 6 3 4 5 5 4 3 5 5 5 7 8 8 10 7 7 7 8 8 8 7 7 7 7 8 9 9 7 9 9 9 9 6 15 10 10 9 10 11 11 11 11 11 11 12 14 15 17 18 21 22 25 25 25 25 25 25 24 24 23 23 21 21 21 21 18
1 1 1 1 0 1 3 3 4 4 5 5 6 5 5 6 6 6 7 8 9 10 9 8 8 8 7 7 8 9 8 8 9 10 10 10 9 9 9 9 9 13 11 10 8 10 11 11 10 10 10 10 12 13 15 17 17 18 21 23 24 24 25 25 25 25 25 24 24 22 22 23 21 21
2 1 2 1 2 2 3 3 4 4 3 5 6 6 6 6 7 7 7 8 8 9 10 9 9 8 9 8 8 8 8 9 9 9 10 10 10 10 9 9 11 9 11 10 9 10 10 11 9 9 10 10 11 13 15 16 17 17 20 22 23 26 26 24 24 25 26 25 23 23 23 23 23 25
3 2 2 2 2 2 3 3 4 3 5 6 6 7 6 7 7 6 7 8 9 9 10 10 9 9 10 9 9 9 9 9 9 9 10 9 10 10 9 8 9 8 13 12 11 10 11 12 12 11 10 10 11 12 14 15 16 17 18 21 22 19 23 23 24 26 26 25 23 24 24 24 25 27
3 3 3 2 3 3 3 4 4 5 6 6 6 7 7 8 8 8 9 9 10 11 11 10 10 9 9 9 8 9 9 9 9 9 9 10 10 10 9 9 8 8 6 6 7 8 10 14 12 9 10 11 11 11 13 14 15 17 18 19 20 23 24 23 24 25 24 24 24 23 23 25 25 26
3 3 3 3 3 4 4 4 5 5 6 6 7 7 7 8 8 8 9 9 11 11 11 11 10 10 9 9 9 8 8 9 9 10 9 9 8 8 9 8 8 7 8 7 4 6 5 2 3 7 8 9 11 10 11 13 15 15 17 18 19 21 23 21 23 16 18 21 23 23 23 24 24 26
4 4 3 4 3 3 4 3 4 5 6 6 7 7 7 8 8 9 9 9 10 10 11 10 10 9 9 8 9 8 8 9 8 8 8 8 7 7 7 8 7 7 7 9 7 6 5 9 10 11 12 12 12 12 10 11 12 14 15 16 18 20 20 21 23 23 25 23 24 22 23 25 25 25
4 4 3 4 3 1 5 5 6 7 7 7 7 8 8 9 9 9 9 10 10 10 10 11 10 10 10 9 9 9 8 8 8 6 7 8 9 9 9 10 10 9 8 7 8 7 8 8 6 6 7 7 11 10 12 8 11 13 12 13 14 16 18 19 21 23 25 20 19 19 19 17 20 24
3 3 3 4 4 3 7 9 10 10 10 10 9 9 8 9 9 10 10 10 10 10 11 11 11 11 10 9 9 9 9 8 8 9 9 10 9 9 9 9 8 8 10 10 9 8 7 7 8 7 7 4 7 4 6 6 4 5 13 12 13 13 15 17 19 20 20 20 24 22 21 24 25 22
3 4 4 4 7 10 12 12 15 13 12 12 13 13 13 12 11 11 11 11 11 11 11 11 11 11 12 11 11 10 10 10 9 8 8 9 8 9 9 9 7 6 6 9 9 8 8 7 9 8 7 7 6 6 2 11 8 8 3 8 11 12 14 16 17 18 19 20 21 21 21 20 20 20
3 4 4 5 5 6 6 6 7 10 15 15 14 13 13 13 15 15 13 12 12 12 12 12 12 12 12 12 11 10 10 10 9 9 9 9 9 9 9 9 8 3 1 6 9 10 7 8 10 9 8 7 6 3 6 6 5 4 6 6 8 10 12 14 16 17 18 20 22 22 22 23 24 24
4 5 5 5 5 5 6 7 8 8 7 8 14 14 14 16 16 16 17 17 16 14 15 14 15 13 12 13 12 11 11 10 11 10 10 10 10 10 11 10 9 8 6 7 9 10 9 8 9 9 8 8 2 3 8 8 7 6 6 6 7 8 10 12 14 16 18 20 20 22 22 23 22 22
5 6 6 6 6 7 7 7 8 8 8 10 10 9 9 10 12 18 21 20 20 18 16 16 16 15 14 14 13 12 11 12 13 12 12 11 12 12 13 13 12 10 8 10 10 11 10 8 9 10 8 8 2 1 7 6 6 7 7 8 7 7 9 11 12 14 17 18 20 21 22 22 23 23
6 7 7 7 8 8 8 7 7 9 10 11 10 11 11 12 12 12 11 12 13 13 15 17 17 16 15 15 16 15 13 15 14 14 14 14 14 14 14 14 15 14 14 14 12 14 10 8 10 10 8 5 3 4 8 8 5 6 8 8 7 7 7 9 10 12 15 17 18 18 20 20 20 19
7 7 7 8 8 8 8 9 4 6 8 11 12 12 12 12 12 12 11 12 10 12 14 13 13 12 12 13 12 12 11 11 11 12 14 14 14 14 15 16 12 13 11 11 12 12 11 9 10 10 9 7 7 7 3 12 6 5 7 8 8 7 6 7 8 11 12 14 15 16 17 17 17 16
7 8 8 8 8 9 10 8 2 3 5 11 13 13 13 12 12 12 12 13 16 18 17 17 19 21 22 22 20 18 19 13 11 12 13 13 12 15 16 15 14 14 10 10 11 12 13 10 10 10 9 10 7 7 7 2 7 2 3 5 7 7 6 3 5 7 10 12 14 15 14 15 16 19
7 8 4 6 11 12 11 8 2 1 5 12 12 13 14 15 15 14 12 11 11 12 15 16 18 19 19 21 22 22 21 21 16 14 18 16 15 17 16 16 14 12 12 11 10 12 14 11 11 12 11 2 5 8 5 3 3 7 7 7 7 7 6 4 1 4 6 9 13 16 19 20 21 15
8 8 7 11 12 12 11 9 8 6 7 11 11 15 16 17 17 15 16 15 15 15 15 14 13 13 16 16 17 18 19 19 18 18 18 18 18 20 17 16 15 14 13 11 12 13 12 12 12 11 10 10 6 6 5 3 3 2 2 1 5 10 7 7 6 7 10 11 14 16 18 20 17 11
8 9 9 9 12 15 13 10 8 7 7 10 12 15 15 16 17 15 16 15 14 16 15 16 16 17 16 15 14 15 16 15 17 19 20 19 19 19 18 16 16 15 12 9 11 13 12 12 12 11 12 11 8 7 4 4 2 1 1 2 3 7 9 9 10 11 14 14 16 17 18 16 13 10
9 9 9 10 6 7 3 3 4 6 8 9 11 15 16 17 16 15 15 17 18 17 17 17 17 15 15 15 15 15 15 15 15 16 16 19 18 19 18 18 17 17 15 12 12 11 11 11 12 12 12 11 11 6 5 3 2 2 1 2 3 4 5 6 7 8 13 16 16 16 14 12 11 10
10 10 9 11 6 8 8 7 8 10 11 12 13 17 19 19 17 17 18 17 15 15 15 15 15 14 14 14 14 14 15 15 15 15 16 16 17 18 18 18 17 17 14 12 13 13 12 11 12 11 10 11 11 7 5 4 3 3 2 3 4 5 6 7 7 8 9 10 11 9 10 13 12 12
10 10 11 12 10 16 15 16 16 17 18 16 15 16 16 17 17 16 16 16 16 15 15 15 15 15 14 14 14 14 14 14 15 15 14 16 17 15 16 16 18 17 16 14 13 14 14 14 12 12 12 10 10 8 7 5 5 5 4 4 5 5 6 7 8 8 7 9 10 13 13 11 12 13
10 11 12 11 18 19 18 18 18 17 18 15 18 19 20 20 18 14 16 15 15 14 14 15 15 15 14 14 14 13 13 14 14 14 15 15 16 16 16 16 16 18 18 18 16 16 15 14 13 13 14 12 11 10 8 7 6 7 6 5 5 5 6 7 8 9 9 8 10 9 10 9 8 8
9 10 12 14 16 15 17 19 20 18 19 21 21 21 20 18 12 14 14 14 13 14 14 14 14 14 14 14 14 13 14 13 14 14 13 14 15 16 17 17 15 15 12 12 16 17 17 15 14 11 12 13 14 11 8 6 8 7 8 8 6 6 6 7 8 10 10 10 8 8 9 10 9 6
16 16 15 15 16 16 15 12 11 12 13 14 16 17 17 12 12 12 12 12 13 14 13 14 14 14 13 14 14 14 14 14 14 14 14 14 14 14 15 15 15 15 15 14 14 17 18 16 15 14 14 14 13 11 9 4 7 7 9 8 7 7 5 7 8 9 10 11 10 9 8 8 10 10
8 8 10 13 15 16 18 18 17 17 16 13 12 10 10 11 12 11 12 13 13 13 14 14 14 14 14 13 12 13 13 14 14 14 13 14 14 13 12 13 13 12 13 15 15 14 15 13 14 15 14 12 11 11 6 4 8 9 8 8 10 7 9 9 9 9 10 10 11 10 10 9 8 6
10 11 12 11 9 9 10 10 10 10 10 11 10 11 11 11 11 13 15 15 15 15 15 14 14 13 13 13 13 13 14 14 14 13 12 13 11 9 9 10 11 11 12 12 12 13 13 14 12 11 11 11 9 8 6 6 8 9 9 9 6 6 9 11 10 9 11 12 11 11 11 11 11 9
9 10 10 9 9 9 10 10 11 11 11 11 11 13 12 12 12 12 12 12 13 12 11 12 13 12 13 13 11 10 11 10 10 9 9 11 14 11 10 11 11 10 11 11 9 10 10 11 12 14 12 11 11 9 7 5 7 9 10 10 9 8 10 9 10 11 13 12 11 12 12 10 10 10
9 9 9 9 9 10 10 11 11 11 12 12 12 12 12 11 12 12 12 12 12 12 12 12 12 12 11 11 10 11 11 11 10 11 11 12 11 10 11 10 11 12 10 10 10 10 8 7 8 9 9 8 7 6 7 7 7 7 8 10 10 10 9 9 9 12 11 10 13 13 12 11 9 8
8 9 9 9 10 10 10 11 12 12 12 12 12 12 12 12 12 11 12 12 12 12 13 12 12 12 12 12 10 10 10 10 11 11 10 11 11 11 11 11 12 12 11 9 9 8 8 8 8 7 8 8 8 3 3 1 8 8 9 8 9 10 9 8 9 10 11 11 10 12 12 10 9 8
8 8 9 10 10 10 11 11 11 12 12 13 13 13 12 12 11 12 12 11 12 12 12 12 12 11 11 11 11 10 10 10 11 11 11 10 11 12 12 12 11 12 12 12 10 9 7 7 7 7 7 6 9 8 6 4 3 11 10 9 8 9 9 9 7 8 8 9 8 11 14 14 12 10
8 9 9 10 10 11 11 11 12 12 13 13 13 12 12 13 13 13 12 10 11 12 13 12 12 11 11 11 10 10 10 10 11 11 11 10 10 11 11 11 10 11 9 10 9 9 7 7 7 7 8 8 10 9 6 3 3 4 9 11 9 10 12 11 11 10 7 9 8 8 11 12 9 9
9 9 10 10 10 11 11 12 12 12 12 13 13 12 12 12 13 13 13 13 11 11 11 12 12 11 11 10 10 11 11 11 10 10 10 9 10 11 10 11 10 10 11 10 8 8 8 8 7 8 8 9 10 10 7 4 5 4 5 11 14 12 9 12 12 10 11 8 10 10 9 9 8 9
9 9 10 10 10 11 12 12 12 13 13 13 12 12 12 12 12 12 12 12 11 11 11 12 11 10 10 10 10 10 10 10 10 10 9 9 9 9 9 10 10 9 9 9 7 8 8 8 8 9 9 9 8 9 8 8 7 7 4 6 12 14 13 13 12 11 11 12 10 9 8 8 11 15
9 9 10 10 10 11 12 12 12 12 13 13 13 13 13 13 12 12 12 11 10 10 10 10 10 11 11 10 10 9 10 10 10 9 9 8 9 9 10 9 9 9 9 9 8 7 7 8 9 9 8 8 5 1 6 9 8 6 7 6 8 14 14 11 12 13 10 9 10 12 12 10 10 9
9 10 10 10 11 12 12 13 13 12 13 13 13 11 10 11 13 13 11 12 11 12 12 11 11 10 10 9 9 8 9 9 9 9 8 8 8 8 9 8 9 8 9 7 7 7 7 8 8 9 5 6 8 10 9 10 9 8 8 7 7 7 8 12 15 14 12 12 10 11 12 11 12 11
10 10 10 11 11 12 12 12 13 12 11 12 13 12 11 11 12 14 13 13 11 10 10 9 10 10 9 8 8 8 9 9 9 8 8 8 8 8 8 9 9 8 8 8 7 7 2 3 6 8 9 9 9 9 8 11 11 9 10 9 7 10 13 13 10 12 15 16 15 14 12 11 9 11
10 10 10 10 11 12 12 12 11 9 11 12 13 12 12 12 12 12 12 11 11 10 9 9 9 8 8 8 8 8 8 8 8 8 8 8 8 8 8 8 9 8 8 8 4 2 4 6 7 9 9 8 7 8 11 11 12 12 10 10 10 9 11 16 17 16 14 14 11 8 7 9 11 12
10 10 10 11 12 12 12 11 11 11 12 12 12 11 12 12 12 12 11 10 10 10 10 9 9 9 9 8 8 8 8 8 7 7 7 7 7 8 7 7 8 8 7 5 3 4 5 7 8 9 9 7 6 10 13 13 11 10 11 11 11 13 13 11 11 14 14 14 14 13 12 9 8 9
10 10 11 12 12 12 12 10 10 11 11 12 12 13 13 12 12 11 10 10 10 10 10 10 10 9 8 8 8 8 7 7 6 6 6 6 7 7 8 7 6 6 6 6 6 6 7 7 6 6 5 6 6 10 11 12 14 12 12 13 13 12 10 10 10 9 9 7 7 12 13 14 14 15
Wind_Direction
34 48 350 322 313 345 329 307 318 317 299 294 290 284 281 288 287 292 293 283 287 302 322 320 326 287 314 328 313 288 291 129 237 289 270 262 268 202 205 230 247 249 248 248 243 236 230 230 229 228 226 227 225 213 202 199 196 198 201 201 201 202 204 200 199 197 198 201 200 199 202 200 198 194
36 20 345 329 312 18 300 337 304 296 301 285 286 278 274 264 273 283 288 290 280 282 283 279 290 337 316 305 290 300 288 90 338 301 299 294 303 87 204 236 246 251 248 245 245 245 245 242 238 229 223 219 222 216 210 205 199 198 201 204 202 200 202 202 200 198 199 202 198 195 196 195 197 194
24 29 326 322 303 311 284 279 252 255 264 282 275 271 272 273 273 280 282 282 271 270 293 301 304 313 316 305 306 299 292 299 307 288 282 277 113 226 242 230 235 242 248 248 239 238 239 243 240 236 230 225 226 222 212 208 206 202 204 202 202 201 200 200 202 200 201 202 199 194 191 190 191 194
135 241 263 307 321 323 288 247 266 272 262 280 286 281 280 274 271 279 277 274 282 288 295 297 288 284 292 304 292 286 281 256 208 280 272 274 290 275 273 215 216 218 237 245 249 243 240 240 242 232 216 219 221 224 217 210 209 206 206 203 203 201 200 198 200 202 202 202 201 193 189 188 188 190
179 304 295 241 258 265 280 295 278 269 280 260 258 273 275 273 273 271 277 279 283 285 284 287 292 298 299 287 281 283 283 278 273 265 271 276 277 279 274 265 193 211 216 235 245 250 249 244 246 245 230 227 226 222 219 215 214 209 206 205 203 203 201 198 200 202 201 201 201 194 188 188 187 185
171 196 270 311 302 299 293 289 287 285 282 279 270 251 255 279 284 278 283 286 286 290 292 288 296 294 289 283 290 295 297 294 290 283 281 274 270 271 276 270 247 187 200 213 228 248 248 250 249 248 244 232 226 224 223 222 219 215 212 209 206 205 201 201 199 200 203 201 200 194 190 189 189 180
130 220 237 258 236 236 271 282 283 289 274 291 295 293 289 285 278 279 279 287 287 288 291 294 288 285 290 290 295 293 288 290 291 285 278 276 272 271 266 263 271 167 185 184 215 234 243 250 248 245 246 239 228 225 225 224 222 216 215 215 211 207 206 203 200 200 202 203 200 195 191 190 186 185
235 256 256 231 251 268 275 287 300 286 296 290 294 296 277 262 261 266 270 263 272 282 286 290 291 295 298 289 283 287 290 284 276 275 279 271 270 270 263 257 262 161 170 173 205 224 237 245 246 242 243 240 229 225 224 226 227 221 218 216 214 210 209 205 203 201 202 204 200 197 192 190 187 190
240 239 241 256 268 266 278 276 276 303 304 298 297 295 294 285 281 272 267 272 274 278 280 285 286 285 283 287 287 286 287 288 283 279 271 268 269 270 270 274 273 148 181 177 202 213 227 238 235 231 235 233 229 227 226 226 226 225 221 221 219 214 220 213 208 204 203 202 202 199 193 190 190 192
210 227 242 244 255 271 275 282 288 286 284 288 284 284 289 296 299 293 287 281 275 276 276 279 282 276 277 280 277 281 283 285 289 289 287 283 273 266 263 260 255 262 227 209 196 211 224 225 230 227 221 230 229 227 227 227 226 225 223 223 218 214 216 214 216 211 204 203 203 200 194 193 192 193
197 221 227 242 245 254 266 272 276 279 279 273 274 271 270 273 278 281 284 285 287 285 285 281 278 280 274 270 276 273 272 275 275 279 282 277 269 258 256 253 252 238 244 234 234 266 305 10 243 176 215 225 235 234 227 228 229 227 225 222 219 218 218 214 221 224 229 215 203 200 195 192 193 194
190 197 212 229 241 249 264 289 289 283 276 281 279 277 275 273 270 271 271 270 272 275 276 276 282 283 287 282 273 273 267 268 269 267 275 284 290 289 279 274 270 266 267 263 215 185 214 219 225 214 217 217 217 223 230 230 236 235 230 225 223 219 216 212 215 206 213 211 214 206 195 192 193 196
186 201 199 223 218 25 353 328 299 291 298 290 275 274 275 271 269 268 265 271 271 270 270 273 273 273 275 278 282 279 272 268 275 293 294 288 285 281 276 269 264 265 268 258 258 239 224 243 235 231 235 203 190 204 218 242 220 230 237 233 230 226 222 218 215 213 215 209 211 213 212 199 195 197
206 218 243 219 146 212 232 241 242 242 250 249 261 278 283 278 274 270 270 269 268 270 271 271 274 274 272 272 273 277 282 288 287 280 273 268 271 271 268 268 263 264 257 262 258 255 250 247 251 245 242 179 178 264 203 247 298 204 216 228 230 229 229 226 220 218 217 206 209 206 199 194 200 200
218 233 238 268 191 202 219 225 223 236 237 237 245 251 256 268 273 278 274 271 269 270 272 273 270 268 268 265 267 269 276 279 279 279 278 274 272 271 273 271 266 252 286 271 269 269 265 259 260 260 246 233 247 239 68 42 28 357 300 235 234 229 226 227 225 222 216 212 209 204 202 199 197 195
233 251 263 258 270 270 271 301 282 229 214 223 232 234 243 249 254 256 263 267 268 266 267 267 264 266 265 266 265 266 265 267 269 265 265 264 268 269 267 270 266 266 118 272 266 266 267 266 259 258 268 269 245 86 54 44 34 337 322 296 261 246 239 231 228 222 216 212 207 203 199 198 196 193
260 268 266 268 263 273 179 225 253 283 286 221 209 220 225 231 236 244 242 244 254 268 269 268 267 264 270 271 266 265 270 277 275 279 275 275 271 263 263 265 267 266 262 269 269 268 266 266 264 259 251 257 212 115 77 34 355 341 313 306 292 270 249 238 231 226 218 214 206 203 200 197 193 189
248 248 258 269 272 273 272 277 274 283 288 300 295 278 272 272 237 222 228 236 238 240 251 257 263 265 266 268 272 275 276 268 267 270 271 271 272 268 264 267 270 279 286 268 273 272 265 262 265 260 257 254 190 99 86 53 22 342 332 321 314 297 273 254 239 227 221 215 208 203 197 192 190 189
253 260 261 265 268 274 275 278 294 287 291 294 293 286 281 274 273 274 262 242 233 229 230 243 253 265 268 270 273 275 273 268 266 266 271 275 275 281 289 288 272 266 259 261 260 261 258 253 258 259 254 231 159 228 110 84 19 357 336 331 321 314 298 273 251 231 221 215 210 202 195 189 185 180
257 258 261 265 273 278 277 282 221 235 281 291 289 286 281 278 276 272 262 264 272 281 286 280 279 274 285 301 294 296 300 305 304 292 270 262 265 269 265 263 264 259 249 243 246 253 256 251 252 255 257 248 237 241 203 107 65 5 353 339 330 322 310 285 253 233 214 204 199 193 186 177 165 153
262 261 260 262 277 283 286 298 294 223 251 289 289 288 286 284 282 275 275 254 234 229 237 251 268 278 283 283 282 278 279 278 286 287 276 263 259 258 260 262 260 257 253 241 245 254 256 246 251 252 244 251 239 247 254 235 98 25 10 10 353 344 339 317 243 219 205 192 178 173 161 149 140 135
270 270 242 259 270 276 279 295 345 347 286 291 293 293 292 289 286 282 282 281 271 236 220 229 241 251 261 269 273 279 279 276 267 261 256 255 258 259 259 264 262 265 257 245 240 252 253 254 248 254 256 170 193 236 238 250 224 189 177 108 50 22 22 25 110 177 176 169 162 155 149 143 137 136
281 280 246 207 224 253 271 278 270 273 276 282 289 295 296 291 286 285 286 284 283 281 278 269 257 248 239 240 246 250 245 245 254 258 259 255 253 257 260 259 263 260 253 250 240 247 250 250 245 247 250 240 211 160 184 204 241 276 263 183 71 47 50 65 85 110 122 133 137 138 137 137 136 134
287 286 283 271 215 222 242 263 279 276 264 268 280 291 287 285 281 283 282 282 287 284 279 275 272 272 274 276 270 264 256 241 232 240 248 247 248 253 254 254 252 256 259 253 232 243 252 254 252 239 242 246 242 169 189 163 191 247 229 117 90 82 78 74 73 89 108 117 124 130 133 133 129 117
292 291 293 289 10 101 137 204 236 246 242 248 273 283 279 274 286 305 290 284 286 279 275 273 272 272 271 267 262 260 259 257 254 247 238 241 243 246 249 249 251 252 255 256 284 258 252 246 248 248 246 246 249 211 169 155 163 186 151 103 109 112 102 95 97 92 94 103 113 118 118 117 118 119
285 292 295 295 49 49 6 328 302 281 276 271 277 278 276 281 286 282 278 282 280 275 272 271 270 269 265 261 259 257 256 256 253 251 251 245 241 242 244 248 250 254 257 255 270 268 262 254 248 251 248 246 245 221 159 189 174 151 147 120 119 125 118 116 111 110 112 121 122 119 110 104 103 107
291 290 298 288 13 342 331 319 312 304 296 288 279 276 274 273 272 271 273 273 272 268 267 267 266 263 261 259 258 256 256 253 251 252 250 249 250 247 248 246 249 253 259 263 259 256 251 253 253 250 250 255 251 224 208 207 175 169 147 140 131 129 131 133 127 126 126 127 129 115 108 101 103 107
292 289 293 330 338 315 306 293 285 282 278 277 277 273 272 270 268 270 273 269 265 264 262 261 257 255 253 254 254 252 253 253 252 251 252 253 253 252 252 250 249 250 251 255 255 252 254 253 251 252 253 258 257 238 214 218 161 168 161 145 132 135 141 141 136 134 132 129 134 136 131 129 120 107
295 309 309 289 280 281 280 277 273 269 259 253 253 257 261 262 269 272 269 266 262 260 259 255 253 251 249 250 252 254 255 257 257 254 253 253 252 252 251 253 252 252 246 241 248 248 248 249 251 249 246 246 251 255 238 207 169 174 164 152 149 153 148 146 146 144 140 137 136 139 144 143 140 132
268 263 260 261 258 262 265 274 287 299 297 294 285 278 273 270 271 268 268 266 263 261 260 258 257 257 257 256 255 257 256 253 252 250 250 250 250 249 249 250 250 248 249 248 240 243 243 244 246 245 244 242 240 247 245 168 161 169 159 163 143 134 151 152 152 148 143 142 141 142 135 143 148 146
276 291 297 299 296 279 274 268 263 262 265 262 262 261 267 272 275 272 270 270 268 264 262 262 261 261 262 263 261 257 253 251 248 246 247 249 250 250 250 250 250 247 244 243 242 242 244 243 243 240 240 243 248 255 255 148 155 160 164 160 156 159 164 159 153 151 150 145 143 141 141 142 142 139
307 298 293 282 286 300 301 299 307 302 301 296 294 289 288 286 284 279 273 268 270 269 271 269 267 263 262 260 257 257 255 252 250 247 246 243 245 240 247 249 250 249 250 246 244 236 227 237 247 255 250 250 252 258 256 217 158 162 161 163 155 140 152 159 154 152 152 147 143 146 147 149 150 153
295 298 305 308 303 305 307 307 306 305 303 301 297 295 291 290 289 287 286 282 279 276 270 264 260 260 260 259 256 255 254 250 249 241 240 241 244 242 239 244 246 245 245 245 244 250 241 230 227 234 242 239 241 242 240 219 154 157 156 159 157 151 160 159 157 152 152 147 145 145 147 151 155 154
295 309 311 311 309 308 310 312 310 308 308 306 302 299 295 290 287 284 283 280 278 276 274 274 272 267 262 259 257 255 254 253 245 243 237 241 236 238 240 243 245 246 245 245 244 240 238 228 220 218 221 225 231 253 247 205 151 154 154 160 161 156 160 157 155 156 156 154 146 144 144 149 152 149
316 319 315 312 311 310 310 308 309 309 307 305 303 301 298 294 289 283 278 278 278 276 273 270 265 264 260 258 251 248 247 249 251 251 237 236 237 237 239 241 246 246 244 243 241 240 233 223 219 221 218 220 219 169 31 289 155 151 147 153 158 153 152 154 153 156 153 147 146 140 140 135 135 135
322 321 316 315 313 313 310 310 311 308 306 305 303 302 297 291 288 285 283 280 277 275 274 271 267 262 260 256 254 250 248 243 243 241 238 233 236 239 241 242 241 243 243 245 243 235 225 221 211 204 209 200 213 221 192 9 126 149 147 154 151 151 146 143 141 144 145 141 143 145 145 147 143 138
322 322 319 314 314 313 311 310 310 309 307 306 305 303 298 294 291 287 283 279 275 273 270 268 264 260 257 255 254 252 248 242 241 240 236 234 233 235 237 239 239 239 237 237 235 232 219 216 212 210 214 208 212 217 207 120 122 142 147 145 148 154 148 144 147 144 140 132 130 143 143 139 133 132
328 323 322 318 318 316 311 310 308 306 305 304 303 299 296 295 294 291 288 286 278 274 272 268 265 261 259 256 255 254 251 244 239 235 232 228 231 233 233 235 234 231 234 236 228 228 217 212 205 207 215 221 212 208 180 133 141 173 165 148 149 153 144 149 148 142 137 134 129 125 120 117 125 136
324 324 320 320 318 316 314 312 310 308 307 306 302 299 298 297 294 290 287 283 279 275 274 271 266 262 259 256 252 251 248 242 232 229 226 224 223 230 234 232 233 231 228 227 219 218 214 215 210 208 211 221 224 213 175 158 159 147 117 147 141 145 157 153 144 135 137 131 124 115 97 90 91 100
325 322 322 319 318 318 317 315 313 310 307 303 301 299 297 295 293 292 288 283 279 275 275 274 271 268 264 260 255 251 245 237 232 227 223 222 223 226 232 232 229 227 225 228 226 213 210 216 211 214 212 220 234 235 137 113 105 93 97 89 140 152 153 148 141 139 127 126 122 118 120 122 128 133
330 324 324 324 321 321 318 316 313 312 306 302 300 295 289 289 290 291 290 286 283 281 279 276 273 267 263 260 252 246 246 239 232 227 223 222 224 226 226 227 230 223 224 222 214 213 214 218 212 186 143 115 121 109 104 117 120 121 114 122 80 95 129 144 144 143 130 136 129 128 132 135 135 143
335 330 329 328 326 319 316 314 313 310 303 300 298 297 293 291 290 286 286 283 278 272 273 271 271 270 262 256 254 247 243 240 231 221 215 218 222 222 226 226 227 223 222 224 217 219 197 115 121 127 139 148 150 142 136 135 129 120 120 109 87 89 97 102 99 120 139 146 145 139 131 129 136 144
337 338 333 329 324 318 316 314 310 305 303 302 302 298 299 297 296 295 295 293 288 283 276 276 276 269 267 263 258 248 243 235 229 223 214 211 215 218 216 218 222 225 223 226 220 142 131 147 145 149 155 167 164 131 130 131 127 124 120 114 110 106 92 93 100 102 95 86 78 90 117 137 149 154
341 336 333 327 323 319 315 311 307 304 304 306 305 303 303 301 299 295 292 289 290 288 286 284 283 282 279 276 271 262 250 240 224 219 213 213 211 220 224 219 218 219 218 213 171 146 166 163 166 161 163 162 128 118 125 126 123 121 120 117 119 115 113 108 97 87 79 78 92 95 91 89 80 94
340 337 330 326 320 317 313 309 308 308 305 305 307 310 309 306 301 299 296 295 294 294 293 292 290 287 283 280 275 265 250 227 221 219 215 213 215 217 225 224 212 206 197 173 156 155 162 162 159 167 129 102 109 120 127 129 126 123 121 118 116 116 119 123 116 108 104 97 57 93 102 104 105 107